GFSMW_con_lsi_276.txt.gz
Lid_Strength_Index
4 3 3 4 2 2 1 1 1 1 1 1 1 1 1 -0 -0 -1 1 1 1 3 1 3 3 3 3 3 2 4 5 5 4 4 4 4 4 4 3 4 3 2 2
5 4 3 5 2 2 1 1 1 1 1 1 1 1 1 0 0 0 1 2 2 2 3 3 3 3 3 2 3 4 5 5 4 4 5 8 6 4 5 4 4 3 3
6 4 5 3 2 2 2 2 1 2 1 1 1 1 1 0 1 0 1 1 2 3 2 2 2 2 2 4 3 3 3 4 3 3 6 8 9 8 5 6 4 4 3
4 4 3 3 2 2 1 1 1 1 1 1 0 0 2 2 2 3 3 2 2 2 2 1 1 2 2 3 3 2 1 3 5 5 4 4 6 8 10 7 5 4 4
4 4 3 3 2 1 1 1 1 1 0 0 0 1 1 1 0 1 1 1 1 1 2 1 1 1 3 3 1 1 1 3 4 5 5 5 6 6 8 9 7 5 5
4 3 2 2 2 1 1 1 1 1 0 0 0 1 1 1 3 3 3 3 2 1 1 2 2 2 2 1 1 1 2 3 3 3 3 4 6 7 7 8 7 7 6
4 4 3 3 2 2 2 1 1 1 0 1 2 2 2 2 2 2 3 3 3 2 2 2 2 2 1 1 1 2 2 3 3 3 3 4 4 5 5 6 7 7 6
4 3 3 3 2 2 2 1 1 2 2 2 3 3 2 3 3 4 3 3 4 4 3 3 1 1 1 1 2 2 3 2 3 3 3 3 4 4 4 5 7 7 6
4 3 3 3 2 2 2 1 2 3 3 3 3 3 2 2 2 2 2 4 3 5 4 2 2 1 2 1 2 3 3 3 4 4 3 3 4 4 4 4 4 6 8
4 3 3 3 2 2 1 1 2 3 3 4 3 3 2 3 2 2 3 3 3 3 2 2 2 2 2 2 2 3 4 4 4 5 4 3 3 3 4 4 4 6 7
4 3 3 2 2 2 2 3 3 4 4 4 3 3 3 3 2 2 3 3 3 2 2 2 2 2 2 1 3 3 4 6 5 5 5 5 3 5 5 5 5 6 7
4 3 3 2 2 2 2 3 3 4 4 4 4 2 3 3 2 2 3 3 3 2 3 3 3 3 3 3 5 6 6 6 6 6 5 5 5 5 5 6 6 6 6
4 3 3 3 2 2 2 3 3 4 5 4 3 3 3 2 2 2 2 3 3 3 3 3 3 3 3 5 6 6 7 7 7 6 5 5 5 6 6 6 6 6 6
4 3 3 3 2 2 2 3 4 5 5 5 4 3 2 3 2 2 3 3 2 2 3 3 3 3 4 5 7 7 7 7 6 5 5 5 5 6 6 6 7 7 7
4 4 4 3 3 2 2 3 4 5 5 4 4 3 2 1 2 2 3 3 2 2 2 3 3 3 4 6 7 7 7 7 6 5 5 5 5 5 6 8 8 9 8
4 4 3 3 3 2 3 3 4 5 5 4 4 3 2 2 2 3 3 3 1 2 2 3 3 4 5 6 6 7 8 7 6 6 6 6 5 5 6 7 7 7 8
4 4 3 3 3 2 2 3 4 4 4 3 4 3 2 3 3 3 3 3 2 2 2 2 2 4 3 7 7 7 8 6 6 6 6 6 6 8 8 8 7 7 6
4 3 3 3 2 2 2 4 4 5 3 3 4 4 3 4 4 3 3 2 1 2 2 2 2 4 3 7 8 8 7 6 6 7 7 7 7 8 9 9 8 8 7
3 3 2 2 2 2 4 4 5 3 4 4 4 5 4 4 4 4 4 2 2 2 2 2 3 3 3 7 8 8 7 7 7 7 7 7 7 8 9 9 9 8 8
3 3 2 2 2 3 4 4 4 4 4 4 4 4 4 3 4 4 3 3 2 3 2 3 2 3 2 8 8 8 7 8 9 8 8 7 7 8 9 9 8 9 8
3 2 2 3 3 4 3 5 4 4 3 3 3 3 2 2 3 2 2 2 2 2 3 3 2 3 3 6 8 9 8 9 9 8 8 7 8 9 9 9 9 9 9
3 2 3 4 4 4 3 4 4 3 3 3 3 3 3 4 4 2 1 2 2 2 4 5 4 3 3 6 8 9 9 8 8 9 8 8 9 10 10 9 9 10 9
2 2 4 4 4 3 3 4 3 3 2 2 2 2 2 3 2 3 2 2 3 4 5 5 5 5 5 5 7 8 8 7 8 8 8 9 9 9 9 8 8 8 8
3 3 3 5 5 4 3 3 3 2 2 3 2 2 3 3 2 3 3 3 3 4 5 5 5 6 6 7 8 7 7 7 8 8 7 8 8 8 8 8 8 8 8
2 3 4 5 4 3 3 3 3 3 2 3 3 2 4 3 3 2 2 3 5 5 5 5 6 7 8 8 10 9 9 8 9 9 8 9 10 10 9 9 9 8 8
3 4 4 3 3 3 3 3 2 3 2 3 4 4 5 4 4 4 4 8 8 8 7 8 8 7 10 10 10 10 10 10 10 9 10 11 11 11 11 10 10 9 9

GFSMW_con_lsi_279.txt.gz
Lid_Strength_Index
4 4 2 2 2 2 1 1 1 1 1 1 2 2 3 3 2 3 2 3 4 4 5 5 5 5 6 6 6 6 7 7 6 7 7 6 5 6 5 5 5 5 5
5 4 3 3 3 2 2 2 2 2 2 2 2 2 2 2 2 2 3 4 4 4 5 5 5 5 5 5 6 5 4 7 5 5 6 7 7 6 5 7 6 6 5
6 4 4 4 4 3 2 3 2 3 3 2 3 2 3 2 3 3 4 3 4 5 5 5 5 5 5 6 5 5 6 6 4 4 5 8 9 7 7 7 7 6 6
5 5 4 4 4 3 2 4 4 4 4 3 2 3 2 3 3 4 4 4 5 5 4 4 4 5 6 6 6 5 4 3 5 5 5 5 5 8 8 7 7 6 5
5 5 4 4 4 4 4 4 4 4 5 4 4 5 5 5 5 5 5 5 4 4 4 4 5 5 6 6 5 5 4 3 4 5 5 5 5 6 7 9 8 6 5
5 5 4 3 3 2 2 3 3 3 3 4 4 6 6 6 6 6 6 7 6 5 5 4 5 6 6 6 4 3 4 4 4 4 4 5 6 6 6 7 7 7 6
5 4 4 4 3 3 2 2 3 3 4 5 6 6 5 6 6 7 6 7 7 7 6 6 6 6 5 4 4 4 4 4 6 6 6 4 6 5 5 8 7 8 6
5 4 4 4 3 3 3 3 4 5 5 6 6 6 6 6 7 6 7 6 7 7 6 7 6 5 4 4 4 4 4 5 6 6 7 6 6 5 4 6 7 9 9
5 4 4 4 3 3 3 4 5 6 6 6 6 6 6 6 6 6 6 6 6 6 6 6 5 5 5 6 4 5 5 6 7 7 7 7 7 7 6 5 6 8 10
5 4 4 4 4 3 3 4 5 6 6 7 6 6 6 6 6 6 7 7 7 6 6 6 6 6 5 4 4 5 6 8 8 7 7 7 7 6 7 7 7 7 9
5 4 4 4 4 4 4 5 6 7 7 7 6 6 6 7 6 7 7 6 6 6 7 6 6 5 5 6 7 7 7 8 9 8 8 7 6 6 7 7 7 7 9
5 4 4 4 4 4 4 5 6 6 8 7 6 6 7 7 6 6 7 6 7 7 6 5 5 5 6 7 8 8 8 8 9 8 8 6 5 6 7 7 7 7 8
5 5 4 4 4 4 5 6 7 8 8 7 7 7 6 5 7 6 6 6 7 7 7 5 5 7 7 8 8 8 8 8 9 8 6 6 5 6 6 7 7 8 9
5 5 5 4 4 4 4 6 7 7 7 8 7 7 7 6 6 6 7 7 7 7 7 5 5 6 7 7 8 8 9 9 8 7 7 7 6 7 7 8 8 9 11
5 5 5 5 5 5 5 5 6 7 8 7 7 7 6 6 6 6 6 6 7 7 7 5 5 6 6 7 8 9 9 9 9 8 6 6 5 4 5 7 8 9 11
5 5 5 5 5 5 5 5 6 7 7 7 7 5 6 6 7 6 7 6 6 7 6 5 5 6 5 6 6 7 9 9 9 9 8 7 7 6 7 7 7 7 9
5 5 5 5 5 5 5 6 6 7 7 6 5 5 6 6 6 6 6 7 7 7 7 6 6 6 6 6 6 6 9 10 8 8 8 8 8 7 8 8 8 8 8
5 4 5 5 6 6 6 7 7 7 7 5 5 5 6 6 6 7 6 7 7 7 7 6 5 6 6 5 7 7 9 9 9 9 9 9 8 7 8 8 9 9 9
5 5 5 6 6 7 7 7 8 7 5 5 6 6 6 6 6 7 8 8 7 8 6 5 6 6 6 7 7 8 9 9 10 9 9 7 7 7 8 9 9 9 9
5 6 6 6 7 7 8 8 7 6 6 6 6 5 6 6 7 8 8 7 7 6 5 6 6 6 7 8 8 8 10 11 10 9 9 7 7 8 9 9 9 10 9
5 5 6 7 7 7 7 7 7 7 6 6 5 5 6 6 7 7 7 7 7 6 6 7 7 7 7 8 8 8 10 11 10 10 9 8 8 9 9 9 9 9 8
5 5 6 7 7 6 7 7 8 7 6 6 5 5 6 6 5 7 7 6 6 6 9 8 8 8 8 7 8 9 9 9 11 9 9 8 8 9 9 9 9 9 8
5 5 7 7 7 7 7 8 7 6 6 5 6 6 6 6 7 8 7 8 8 9 9 8 9 9 8 9 8 9 9 8 9 8 8 8 9 9 9 9 8 8 9
5 5 6 7 8 7 6 6 6 5 5 6 6 6 7 8 8 6 6 8 9 9 9 9 9 9 9 9 11 11 10 9 8 9 8 8 8 8 9 9 9 9 9
5 5 7 7 7 7 6 6 5 5 6 6 6 7 8 9 8 8 9 9 11 9 9 9 9 10 10 10 11 11 10 9 9 9 9 9 9 10 10 10 9 10 10
5 6 6 6 6 5 6 6 5 6 6 7 7 7 8 9 8 9 9 10 10 9 8 8 9 9 8 9 10 10 10 10 10 9 10 10 10 11 10 11 11 11 11

GFSMW_con_lsi_285.txt.gz
Lid_Strength_Index
4 3 3 2 2 2 2 2 1 2 2 3 4 4 5 5 4 4 4 5 4 6 7 6 6 6 7 6 6 7 7 7 7 8 8 7 7 7 6 5 6 6 5
5 4 3 3 2 2 2 2 2 2 2 2 3 3 4 4 4 4 5 5 5 7 6 5 6 6 6 7 7 7 7 7 7 6 7 9 7 6 4 6 6 6 6
6 5 4 3 2 3 2 3 3 3 3 3 2 3 4 4 6 6 6 6 6 6 6 5 6 6 7 7 7 6 7 7 6 5 5 7 8 6 6 6 6 7 7
5 5 4 4 3 3 4 5 4 4 3 3 4 4 5 6 8 7 7 7 6 5 5 4 5 6 6 6 7 5 7 7 7 6 5 6 6 7 8 6 7 6 7
5 6 5 4 3 4 5 6 7 6 6 6 6 6 8 8 8 8 8 7 7 5 4 5 5 5 6 6 7 6 7 7 7 7 5 6 7 7 7 9 9 7 7
5 5 4 4 5 5 6 7 8 8 8 7 7 8 8 8 8 9 8 8 7 7 6 6 7 7 7 6 7 7 7 7 7 6 7 8 8 8 8 8 8 8 8
5 6 6 5 5 6 7 7 7 8 8 8 8 7 8 8 8 8 8 8 8 8 8 7 7 8 7 7 7 8 6 5 6 8 8 8 8 7 8 8 8 10 10
5 5 5 6 7 7 5 6 7 7 7 7 8 8 8 8 8 8 8 8 8 8 7 7 7 7 6 7 8 8 8 8 8 9 9 9 9 8 8 6 8 10 10
7 6 7 7 5 6 6 7 7 7 7 7 8 8 8 8 8 8 8 8 8 6 6 7 7 7 8 9 9 10 10 10 10 10 9 10 9 8 8 7 8 8 11
7 6 5 5 5 6 6 6 7 7 7 8 8 8 8 7 7 8 8 8 7 7 7 7 7 8 8 9 10 12 11 11 11 9 10 10 9 8 8 7 6 9 8
6 5 5 5 5 5 6 7 7 7 8 7 8 8 8 7 8 8 7 7 7 8 8 7 7 8 8 9 10 11 10 10 10 10 9 9 8 9 8 7 8 8 8
6 5 5 6 6 6 7 6 7 7 8 8 8 8 8 7 7 7 7 7 8 8 7 7 7 7 8 9 10 10 10 10 10 9 9 9 7 8 9 9 9 9 8
5 5 5 6 6 6 7 7 7 7 8 7 7 8 7 7 7 7 7 7 8 8 7 7 7 8 8 8 9 9 8 9 9 9 9 9 7 7 7 8 7 9 9
5 6 6 6 6 6 7 8 8 8 7 8 8 8 7 7 8 7 7 8 7 8 7 7 7 7 7 8 8 7 7 8 9 9 9 9 8 7 7 7 8 8 9
6 6 6 6 6 7 8 9 9 9 8 8 8 8 7 8 8 7 7 7 7 7 7 7 7 7 6 6 7 7 7 8 8 10 9 8 7 5 6 7 7 8 8
6 6 6 6 7 8 9 9 9 8 7 8 8 7 7 7 7 8 7 7 7 8 7 7 7 7 6 5 5 5 9 9 10 10 9 9 8 8 7 7 6 7 8
6 6 6 6 7 8 8 9 9 8 8 8 7 6 7 7 8 7 7 8 9 9 9 8 8 9 9 7 7 6 10 10 11 11 11 10 9 8 8 8 7 7 7
6 5 6 7 8 8 9 9 8 8 8 8 6 7 7 8 8 8 9 9 9 9 9 9 9 9 8 8 8 8 10 11 11 11 10 10 10 9 8 8 8 9 9
6 5 6 8 9 9 9 9 9 9 7 7 7 7 8 8 8 9 9 9 9 10 10 9 9 10 10 8 9 8 11 11 11 10 9 9 9 8 8 9 9 10 10
7 7 8 9 9 11 10 10 9 8 7 7 7 7 8 7 8 9 9 9 10 9 8 9 10 9 10 9 9 9 11 12 11 9 9 8 7 8 8 9 10 11 11
8 8 8 10 10 11 11 9 8 8 8 7 7 7 8 8 9 9 9 9 10 9 10 9 10 10 10 10 8 8 10 11 10 9 9 8 8 8 9 8 9 9 9
9 9 10 11 12 10 9 9 9 8 8 7 7 7 8 8 8 10 10 10 10 10 11 11 10 10 10 8 8 8 8 8 10 9 9 8 8 9 9 9 9 9 8
9 9 11 11 10 9 8 9 8 8 7 7 8 8 8 9 9 10 10 9 10 11 11 11 11 11 10 10 8 8 9 9 9 8 8 8 9 9 8 8 9 10 11
10 9 10 11 11 9 7 8 8 7 7 8 8 9 9 9 10 10 10 10 11 11 10 10 10 10 10 10 8 8 9 8 8 8 8 8 8 8 9 9 10 11 11
9 9 10 10 8 8 7 7 7 7 8 8 8 9 10 10 10 11 10 10 11 10 10 10 10 11 11 10 9 9 8 8 9 9 9 9 9 10 10 10 11 11 11
9 9 9 9 8 7 7 7 7 7 8 9 9 9 9 10 11 11 10 9 9 9 9 9 10 10 10 10 9 10 10 10 10 10 10 9 10 11 11 12 12 11 11

GFSMW_con_lsi_291.txt.gz
Lid_Strength_Index
3 2 2 1 1 1 1 0 1 0 0 1 1 1 2 2 2 2 2 2 2 3 4 5 3 1 1 2 1 1 2 2 2 3 3 2 2 1 1 2 2 1 1
4 3 3 2 1 1 1 1 0 0 0 0 0 1 2 2 1 1 1 2 4 5 5 2 1 1 0 0 1 1 3 3 2 4 4 5 4 2 2 1 2 1 1
5 4 3 3 2 2 1 1 1 0 -0 -0 1 1 1 1 2 2 3 4 5 4 2 1 -0 -0 0 1 1 1 2 4 3 2 4 6 6 5 2 2 2 2 2
4 4 4 3 3 2 1 1 0 0 -0 -0 0 1 1 2 2 3 6 5 3 2 1 0 0 0 1 1 2 2 2 2 4 3 3 3 2 6 7 4 3 3 3
4 4 4 3 3 2 1 1 0 0 0 -0 -0 1 1 4 6 6 4 3 2 2 2 2 2 1 2 2 2 2 2 2 3 3 3 3 4 4 6 7 5 4 3
4 4 3 3 3 1 1 1 1 1 1 1 1 2 3 5 4 4 4 3 2 2 2 2 1 1 2 2 2 1 2 2 3 3 4 5 6 6 7 7 6 6 5
4 4 4 4 3 2 2 2 3 4 3 3 4 4 3 2 3 3 3 3 3 3 2 2 2 2 1 1 2 2 3 4 5 4 5 5 5 5 6 7 7 7 5
4 4 4 3 3 2 2 3 4 5 5 5 4 2 3 4 3 3 3 3 3 2 2 2 2 2 2 2 2 3 4 4 4 4 4 5 4 4 4 5 6 8 7
5 4 4 3 3 3 4 4 4 4 4 3 4 3 3 4 3 3 3 3 2 2 2 2 2 2 3 3 2 4 3 3 3 3 3 4 4 4 4 4 5 7 9
5 4 4 4 3 3 4 4 3 3 4 4 4 4 4 4 3 3 3 2 2 2 3 3 3 2 2 2 2 3 3 4 4 4 3 3 3 4 4 4 5 5 6
5 5 5 3 3 4 4 4 3 4 4 4 4 4 4 4 3 3 2 2 2 2 3 3 3 3 2 2 2 2 2 3 4 4 5 6 4 4 4 5 6 6 5
5 5 4 3 3 4 4 3 3 4 4 4 4 4 4 3 3 2 1 1 2 2 2 3 3 3 2 2 2 2 3 3 3 3 4 5 5 4 5 6 6 6 6
5 4 4 4 4 3 3 3 4 4 4 4 4 4 4 3 2 1 1 1 2 2 2 2 3 3 2 2 2 2 3 3 3 3 4 5 5 5 6 6 6 6 6
5 5 4 4 3 3 3 4 3 4 4 4 4 3 2 2 1 1 2 1 1 2 2 2 3 2 2 2 2 3 3 3 3 3 4 5 5 5 5 5 5 5 6
5 5 4 4 3 3 4 4 4 4 4 4 3 3 2 1 1 2 2 1 2 3 2 3 3 2 2 3 3 3 3 3 4 4 5 4 4 5 5 6 6 6 6
5 5 4 4 3 3 5 4 4 5 4 4 4 3 2 2 2 2 2 2 2 3 3 3 3 2 3 5 6 4 4 4 5 5 4 4 5 6 6 6 6 6 6
5 5 4 4 3 3 4 4 4 4 4 5 5 5 2 2 2 2 3 3 3 3 3 2 2 2 2 6 6 6 4 4 4 5 5 6 6 6 7 6 6 6 6
5 4 4 3 2 3 4 4 4 4 5 5 5 5 2 3 3 3 3 2 3 3 3 2 2 3 2 6 7 6 4 3 3 5 6 7 7 6 6 7 7 7 6
4 3 3 2 4 4 4 4 4 4 5 6 5 4 3 3 3 3 3 3 3 3 3 3 3 3 2 6 7 6 3 4 5 6 6 7 6 6 7 7 8 7 7
3 3 3 3 4 3 4 5 5 5 5 5 5 4 4 3 3 3 3 3 3 3 3 3 3 4 3 5 7 6 5 5 6 5 5 6 6 7 8 7 8 9 8
3 2 4 4 3 4 5 5 5 5 5 5 5 4 3 3 3 3 3 3 3 3 3 3 3 3 3 3 7 8 6 6 5 6 6 5 7 7 8 8 8 8 8
4 4 4 4 4 5 5 5 5 5 5 5 5 3 3 3 4 4 4 3 3 4 3 3 3 3 3 5 7 8 8 7 6 6 6 5 8 8 9 8 8 9 9
4 4 5 6 6 5 5 6 6 5 5 3 3 3 3 3 4 5 4 4 4 4 4 4 4 4 4 4 7 8 8 7 7 6 6 8 8 9 8 9 8 8 9
5 6 6 6 7 6 6 5 5 5 3 3 3 3 3 4 4 5 4 4 4 4 4 4 5 5 5 5 5 6 6 7 7 7 7 8 8 9 8 8 8 9 9
6 6 6 7 8 7 6 5 4 2 3 3 3 3 3 4 4 4 4 4 3 5 4 4 5 5 6 6 8 8 8 8 9 10 9 9 9 9 9 9 9 9 10
6 7 7 7 7 6 6 4 2 3 3 3 4 4 4 4 4 4 4 8 9 9 9 10 8 5 8 9 10 10 10 12 12 11 11 10 10 10 10 10 10 10 10